<?xml version="1.0"?>
<gpx xmlns="http://www.topografix.com/GPX/1/1" xmlns:xsi="http://www.w3.org/2001/XMLSchema-instance" version="1.1" creator="GPX RubyGem 1.0.0 -- http://dougfales.github.io/gpx/" xsi:schemaLocation="http://www.topografix.com/GPX/1/1 http://www.topografix.com/GPX/1/1/gpx.xsd">
  <metadata>
    <name/>
    <time>2026-05-08T15:04:18+00:00</time>
    <bound minlat="90.0" minlon="180.0" maxlat="-90.0" maxlon="-180.0"/>
  </metadata>
  <trk>
    <name/>
    <trkseg>
      <trkpt lat="47.286496" lon="7.51824">
        <time>1970-01-01T00:00:00+00:00</time>
        <ele>812.0</ele>
      </trkpt>
      <trkpt lat="47.286443" lon="7.517986">
        <time>1970-01-01T00:00:00+00:00</time>
        <ele>811.0</ele>
      </trkpt>
      <trkpt lat="47.286417" lon="7.517925">
        <time>1970-01-01T00:00:00+00:00</time>
        <ele>811.0</ele>
      </trkpt>
      <trkpt lat="47.286226" lon="7.517671">
        <time>1970-01-01T00:00:00+00:00</time>
        <ele>807.0</ele>
      </trkpt>
      <trkpt lat="47.28616" lon="7.517524">
        <time>1970-01-01T00:00:00+00:00</time>
        <ele>805.0</ele>
      </trkpt>
      <trkpt lat="47.286085" lon="7.517278">
        <time>1970-01-01T00:00:00+00:00</time>
        <ele>802.0</ele>
      </trkpt>
      <trkpt lat="47.285954" lon="7.516647">
        <time>1970-01-01T00:00:00+00:00</time>
        <ele>790.0</ele>
      </trkpt>
      <trkpt lat="47.285967" lon="7.516445">
        <time>1970-01-01T00:00:00+00:00</time>
        <ele>789.0</ele>
      </trkpt>
      <trkpt lat="47.286045" lon="7.516155">
        <time>1970-01-01T00:00:00+00:00</time>
        <ele>791.0</ele>
      </trkpt>
      <trkpt lat="47.286099" lon="7.515926">
        <time>1970-01-01T00:00:00+00:00</time>
        <ele>793.0</ele>
      </trkpt>
      <trkpt lat="47.286144" lon="7.515513">
        <time>1970-01-01T00:00:00+00:00</time>
        <ele>795.0</ele>
      </trkpt>
      <trkpt lat="47.286145" lon="7.515458">
        <time>1970-01-01T00:00:00+00:00</time>
        <ele>795.0</ele>
      </trkpt>
      <trkpt lat="47.286113" lon="7.515389">
        <time>1970-01-01T00:00:00+00:00</time>
        <ele>796.0</ele>
      </trkpt>
      <trkpt lat="47.286029" lon="7.515274">
        <time>1970-01-01T00:00:00+00:00</time>
        <ele>798.0</ele>
      </trkpt>
      <trkpt lat="47.286113" lon="7.51514">
        <time>1970-01-01T00:00:00+00:00</time>
        <ele>801.0</ele>
      </trkpt>
      <trkpt lat="47.286449" lon="7.514579">
        <time>1970-01-01T00:00:00+00:00</time>
        <ele>805.0</ele>
      </trkpt>
      <trkpt lat="47.286702" lon="7.51427">
        <time>1970-01-01T00:00:00+00:00</time>
        <ele>812.0</ele>
      </trkpt>
      <trkpt lat="47.286973" lon="7.514029">
        <time>1970-01-01T00:00:00+00:00</time>
        <ele>819.0</ele>
      </trkpt>
      <trkpt lat="47.286973" lon="7.514029">
        <time>1970-01-01T00:00:00+00:00</time>
        <ele>819.0</ele>
      </trkpt>
      <trkpt lat="47.286702" lon="7.51427">
        <time>1970-01-01T00:00:00+00:00</time>
        <ele>812.0</ele>
      </trkpt>
      <trkpt lat="47.286449" lon="7.514579">
        <time>1970-01-01T00:00:00+00:00</time>
        <ele>805.0</ele>
      </trkpt>
      <trkpt lat="47.286113" lon="7.51514">
        <time>1970-01-01T00:00:00+00:00</time>
        <ele>801.0</ele>
      </trkpt>
      <trkpt lat="47.286029" lon="7.515274">
        <time>1970-01-01T00:00:00+00:00</time>
        <ele>798.0</ele>
      </trkpt>
      <trkpt lat="47.286113" lon="7.515389">
        <time>1970-01-01T00:00:00+00:00</time>
        <ele>796.0</ele>
      </trkpt>
      <trkpt lat="47.286145" lon="7.515458">
        <time>1970-01-01T00:00:00+00:00</time>
        <ele>795.0</ele>
      </trkpt>
      <trkpt lat="47.286144" lon="7.515513">
        <time>1970-01-01T00:00:00+00:00</time>
        <ele>795.0</ele>
      </trkpt>
      <trkpt lat="47.286099" lon="7.515926">
        <time>1970-01-01T00:00:00+00:00</time>
        <ele>793.0</ele>
      </trkpt>
      <trkpt lat="47.286045" lon="7.516155">
        <time>1970-01-01T00:00:00+00:00</time>
        <ele>791.0</ele>
      </trkpt>
      <trkpt lat="47.285967" lon="7.516445">
        <time>1970-01-01T00:00:00+00:00</time>
        <ele>789.0</ele>
      </trkpt>
      <trkpt lat="47.285954" lon="7.516647">
        <time>1970-01-01T00:00:00+00:00</time>
        <ele>790.0</ele>
      </trkpt>
      <trkpt lat="47.286085" lon="7.517278">
        <time>1970-01-01T00:00:00+00:00</time>
        <ele>802.0</ele>
      </trkpt>
      <trkpt lat="47.28616" lon="7.517524">
        <time>1970-01-01T00:00:00+00:00</time>
        <ele>805.0</ele>
      </trkpt>
      <trkpt lat="47.286226" lon="7.517671">
        <time>1970-01-01T00:00:00+00:00</time>
        <ele>807.0</ele>
      </trkpt>
      <trkpt lat="47.286417" lon="7.517925">
        <time>1970-01-01T00:00:00+00:00</time>
        <ele>811.0</ele>
      </trkpt>
      <trkpt lat="47.286443" lon="7.517986">
        <time>1970-01-01T00:00:00+00:00</time>
        <ele>811.0</ele>
      </trkpt>
      <trkpt lat="47.286496" lon="7.51824">
        <time>1970-01-01T00:00:00+00:00</time>
        <ele>812.0</ele>
      </trkpt>
    </trkseg>
  </trk>
</gpx>
